Mayport NS, FL

11:31 PM EDT on March 22, 2017 (GMT -0400)
Mayport Naval Station / Adm. David L. McDonald Field

Weather History for KNRB - November, 2012

Change the Weather History Date:

Wednesday, November 21, 2012

  Actual Average Record
Temperature  
Mean Temperature 59 °F -  
Max Temperature 64 °F 69 °F 78 °F (1997)
Min Temperature 54 °F 55 °F 39 °F (2000)
Degree Days  
Heating Degree Days 6    
Growing Degree Days 9 (Base 50)    
Moisture  
Dew Point 49 °F    
Average Humidity 73    
Maximum Humidity 93    
Minimum Humidity 36    
Precipitation  
Precipitation 0.00 in - - ()
Sea Level Pressure  
Sea Level Pressure 30.07 in    
Wind  
Wind Speed 4 mph (North)    
Max Wind Speed 14 mph    
Max Gust Speed 21 mph    
Visibility 10 miles    
Events      
Averages and records for this station are not official NWS values.
T = Trace of Precipitation, MM = Missing Value Source: NWS Daily Summary

Daily Weather History Graph

Daily Weather History Graph

Search for Another Location

Airport or City:

Trip Planner

Search our weather history database for the weather conditions in past years. The results will help you decide how hot, cold, wet, or windy it might be!

Date:

Astronomy

Nov. 21, 2012 Rise Set
Actual Time 6:56 AM EST 5:26 PM EST
Civil Twilight 6:31 AM EST 5:51 PM EST
Nautical Twilight 6:01 AM EST 6:21 PM EST
Astronomical Twilight 5:33 AM EST 6:50 PM EST
Moon 1:18 PM EST (11/21) 12:40 AM EST (11/21)
Length of Visible Light 11h 20m
Length of Day
10h 29m
First Quarter, 61% of the Moon is Illuminated
Nov 21
First Quarter
Nov 28
Full
Dec 6
Last Quarter
Dec 13
New
Dec 20
First Quarter

Hourly Weather History & Observations

Time (EST) Temp. Dew Point Humidity Pressure Visibility Wind Dir Wind Speed Gust Speed Precip Events Conditions
12:52 AM 57.0 °F 55.0 °F 93% 30.05 in 10.0 mi Calm Calm - N/A   Mostly Cloudy
1:52 AM 57.0 °F 55.0 °F 93% 30.04 in 10.0 mi Calm Calm - N/A   Partly Cloudy
2:52 AM 57.0 °F 55.0 °F 93% 30.04 in 10.0 mi NW 3.5 mph - N/A   Overcast
3:52 AM 57.0 °F 54.0 °F 89% 30.04 in 10.0 mi Variable 3.5 mph - N/A   Partly Cloudy
4:52 AM 55.9 °F 54.0 °F 93% 30.05 in 10.0 mi Calm Calm - N/A   Clear
5:52 AM 55.9 °F 48.2 °F 75% 30.06 in 10.0 mi Calm Calm - N/A   Mostly Cloudy
6:52 AM 54.0 °F 48.9 °F 83% 30.07 in 10.0 mi NW 3.5 mph - N/A   Partly Cloudy
7:52 AM 54.0 °F 48.0 °F 80% 30.09 in 10.0 mi NW 4.6 mph - N/A   Mostly Cloudy
8:52 AM 59.0 °F 50.0 °F 72% 30.09 in 10.0 mi North 5.8 mph - N/A   Mostly Cloudy
9:52 AM 61.0 °F 48.9 °F 64% 30.11 in 10.0 mi North 10.4 mph - N/A   Partly Cloudy
10:52 AM 64.9 °F 46.0 °F 50% 30.10 in 10.0 mi North 10.4 mph - N/A   Partly Cloudy
11:52 AM 64.9 °F 44.1 °F 47% 30.09 in 10.0 mi North 10.4 mph - N/A   Partly Cloudy
12:52 PM 64.9 °F 39.0 °F 39% 30.07 in 10.0 mi North 12.7 mph - N/A   Clear
1:52 PM 64.9 °F 37.0 °F 36% 30.06 in 10.0 mi North 13.8 mph 20.7 mph N/A   Partly Cloudy
2:52 PM 64.0 °F 41.0 °F 43% 30.05 in 10.0 mi NNE 13.8 mph 20.7 mph N/A   Partly Cloudy
3:52 PM 63.0 °F 44.1 °F 50% 30.05 in 10.0 mi NNE 10.4 mph - N/A   Scattered Clouds
4:52 PM 60.8 °F 46.4 °F 59% 30.06 in 10.0 mi NNE 9.2 mph - N/A   Partly Cloudy
5:52 PM 57.2 °F 51.8 °F 82% 30.06 in 10.0 mi North 3.5 mph - N/A   Partly Cloudy
6:52 PM 55.4 °F 51.8 °F 88% 30.06 in 10.0 mi Calm Calm - N/A   Partly Cloudy
7:52 PM 55.9 °F 52.0 °F 87% 30.08 in 10.0 mi NNW 3.5 mph - N/A   Clear
8:52 PM 55.9 °F 51.1 °F 84% 30.08 in 10.0 mi Variable 3.5 mph - N/A   Clear
9:52 PM 55.0 °F 52.0 °F 89% 30.10 in 10.0 mi WNW 3.5 mph - N/A   Clear
10:52 PM 54.0 °F 50.0 °F 86% 30.11 in 10.0 mi NNW 3.5 mph - N/A   Clear
11:52 PM 54.0 °F 48.9 °F 83% 30.10 in 10.0 mi NW 3.5 mph - N/A   Clear